RH
55 55 55 54 52 52 51 43 53 33 40 35 35 37 34 33 35 41 44 47 48 49 47 43 39 36 34 32 32 31 28 26 27 26 25 24 22 21 20 20 20 20 19 19
74 77 75 72 63 59 55 54 54 46 44 43 39 37 36 39 42 44 47 50 55 54 49 43 39 36 34 33 32 31 28 24 25 26 24 23 22 22 22 23 23 23 21 21
69 80 84 82 47 57 60 52 50 56 35 46 45 48 44 43 47 52 53 54 53 52 45 39 35 35 33 33 31 29 27 24 22 23 22 24 26 25 25 24 24 25 25 23
87 93 94 45 48 49 52 46 51 45 38 48 47 46 40 43 48 50 49 48 47 44 39 36 34 32 31 29 26 24 23 22 21 24 27 28 29 28 28 28 27 28 29 27
94 88 68 48 45 48 54 44 45 45 41 44 52 52 37 43 48 41 40 38 38 38 35 33 32 30 28 25 24 23 22 24 27 30 30 32 32 33 33 34 33 33 33 32
96 93 85 33 42 49 55 61 37 46 42 45 60 61 35 46 42 39 37 34 34 33 33 31 30 29 28 28 29 29 31 32 34 36 36 35 36 38 39 40 40 41 40 39
94 96 84 47 49 56 71 41 41 46 45 51 57 53 44 40 41 42 43 41 39 37 36 37 37 36 36 36 35 37 37 38 40 42 43 43 44 45 47 48 49 50 51 49
93 97 95 54 64 64 51 57 57 56 54 56 58 57 54 48 45 48 48 46 45 44 42 42 42 42 42 43 43 44 45 46 47 48 52 58 57 59 57 58 59 61 62 61
85 81 74 69 67 65 61 63 65 67 66 64 63 64 62 57 55 53 53 54 53 53 52 51 50 51 51 51 52 53 54 57 60 61 65 72 76 78 73 71 66 72 71 70
93 91 90 84 78 77 76 74 76 77 78 77 74 74 74 68 63 62 61 60 62 63 64 63 63 63 64 65 67 68 67 70 73 80 83 86 87 89 87 84 83 83 79 84
98 97 98 96 97 96 97 96 95 93 93 94 91 88 83 83 82 80 79 77 77 78 77 77 76 78 78 77 76 78 82 88 95 96 94 92 91 94 95 97 97 95 96 92
97 98 98 93 91 98 97 92 89 96 96 97 93 93 93 90 89 85 80 78 75 82 85 89 89 86 87 85 85 84 82 87 94 96 97 98 98 98 98 98 98 98 98 98
95 96 97 97 97 98 96 98 96 91 91 91 94 94 93 92 91 89 91 90 83 83 86 88 88 88 88 90 93 94 95 93 94 95 96 94 95 97 98 99 98 97 97 98
90 89 92 92 92 93 96 95 94 93 94 96 95 93 90 89 86 86 84 86 80 83 88 90 91 90 90 92 92 95 94 96 93 96 95 96 96 95 95 91 88 86 83 75
84 83 83 82 87 92 95 97 98 96 95 94 94 93 90 85 82 79 77 73 70 72 72 76 77 78 77 80 80 86 91 93 91 90 88 82 75 67 62 55 48 43 43 45
75 76 78 78 79 86 89 95 96 98 97 96 93 91 88 86 79 74 71 71 69 67 66 71 71 71 77 76 71 70 67 61 54 53 55 53 51 49 47 45 45 45 44 41
63 64 65 66 70 79 87 93 98 99 98 97 96 92 87 83 80 78 73 69 68 70 73 70 65 62 58 57 57 55 51 45 43 46 51 51 49 48 46 43 40 38 36 34
74 76 77 77 80 85 97 99 99 99 98 96 96 93 88 85 82 77 74 71 69 66 59 55 56 54 53 54 49 47 48 51 51 48 46 45 43 41 39 37 35 34 33 32
96 97 95 93 96 99 100 99 99 99 100 99 97 94 91 89 87 81 71 59 54 53 53 56 50 45 48 50 51 52 50 47 43 40 38 37 36 35 35 35 34 32 31 31
99 99 98 98 99 99 100 100 100 100 100 100 100 97 90 81 69 61 61 58 55 54 53 50 50 50 52 51 49 46 43 39 38 38 38 38 37 36 36 36 36 35 34 32
98 97 96 85 86 91 98 99 99 99 97 94 88 79 70 64 58 55 56 53 51 51 52 54 55 55 51 48 45 46 46 44 43 41 38 36 35 34 34 34 33 33 32 32
98 96 92 90 80 73 71 71 73 73 73 70 67 64 61 58 54 53 53 54 54 56 57 58 56 53 53 55 56 53 49 45 40 37 36 36 35 34 32 33 34 37 41 45
100 99 96 94 93 82 74 68 66 63 60 60 61 61 59 56 56 56 57 59 61 62 61 59 57 59 59 60 53 47 42 39 37 34 32 31 32 35 39 45 51 57 64 70
93 99 98 93 91 97 94 86 77 68 63 61 60 59 57 57 58 60 64 66 66 67 67 63 64 61 62 53 47 41 35 31 30 31 34 38 44 52 59 66 70 76 80 85
82 87 96 99 91 86 90 91 86 80 74 68 66 64 62 61 63 68 69 70 69 68 67 64 60 60 53 44 39 36 32 32 35 38 45 54 67 74 78 86 90 92 92 91
73 78 85 93 99 94 86 88 87 83 80 73 69 67 66 66 73 74 73 74 74 73 70 65 59 53 48 42 37 34 35 38 44 55 68 71 77 83 90 95 95 96 97 97
77 78 79 79 89 99 99 88 86 82 81 76 72 69 69 78 78 77 77 77 78 76 72 65 58 52 45 39 36 38 43 50 69 77 76 83 89 92 95 96 97 98 99 99